Weather History for KCOD - September, 2011

Change the Weather History Date:

Wednesday, September 14, 2011

  Actual Average Record
Temperature  
Mean Temperature 46 °F -  
Max Temperature 51 °F 69 °F 91 °F (1935)
Min Temperature 42 °F 40 °F 26 °F (1970)
Degree Days  
Heating Degree Days 18    
Moisture  
Dew Point 35 °F    
Average Humidity 65    
Maximum Humidity 76    
Minimum Humidity 50    
Precipitation  
Precipitation 0.21 in - - ()
Sea Level Pressure  
Sea Level Pressure 30.25 in    
Wind  
Wind Speed 8 mph (North)    
Max Wind Speed 14 mph    
Max Gust Speed 18 mph    
Visibility 10 miles    
Events      
Averages and records for this station are not official NWS values.
T = Trace of Precipitation, MM = Missing Value Source: NWS Daily Summary

Daily Weather History Graph

Daily Weather History Graph

Search for Another Location

Airport or City:

Trip Planner

Search our weather history database for the weather conditions in past years. The results will help you decide how hot, cold, wet, or windy it might be!

Date:

Astronomy

Sep. 14, 2011 Rise Set
Actual Time 6:53 AM MDT 7:28 PM MDT
Civil Twilight 6:24 AM MDT 7:58 PM MDT
Nautical Twilight 5:49 AM MDT 8:32 PM MDT
Astronomical Twilight 5:13 AM MDT 9:08 PM MDT
Moon 8:05 PM MDT (9/14) 9:16 AM MDT (9/14)
Length of Visible Light 13h 33m
Length of Day
12h 35m
Waning Gibbous, 95% of the Moon is Illuminated
Sep 14
Waning Gibbous
Sep 20
Last Quarter
Sep 27
New
Oct 3
First Quarter
Oct 11
Full

Hourly Weather History & Observations

Time (MDT) Temp. Windchill Dew Point Humidity Pressure Visibility Wind Dir Wind Speed Gust Speed Precip Events Conditions
12:15 AM 51.8 °F - 33.8 °F 50% 30.22 in 10.0 mi North 8.1 mph - N/A   Clear
12:35 AM 51.8 °F - 33.8 °F 50% 30.22 in 10.0 mi NNE 10.4 mph - N/A   Mostly Cloudy
1:15 AM 50.0 °F - 33.8 °F 54% 30.24 in 10.0 mi North 12.7 mph - N/A   Mostly Cloudy
1:35 AM 50.0 °F - 32.0 °F 50% 30.24 in 10.0 mi North 12.7 mph - N/A   Scattered Clouds
1:55 AM 48.2 °F - 32.0 °F 54% 30.24 in 10.0 mi NNW 11.5 mph - N/A   Clear
2:15 AM 48.2 °F - 32.0 °F 54% 30.24 in 10.0 mi North 10.4 mph - N/A   Clear
2:35 AM 48.2 °F - 32.0 °F 54% 30.25 in 10.0 mi North 9.2 mph - N/A   Clear
2:55 AM 48.2 °F - 32.0 °F 54% 30.25 in 10.0 mi NNW 13.8 mph 17.3 mph N/A   Clear
3:15 AM 48.2 °F - 32.0 °F 54% 30.25 in 10.0 mi NNW 6.9 mph - N/A   Clear
3:55 AM 46.4 °F 42.9 °F 30.2 °F 53% 30.25 in 10.0 mi NW 6.9 mph - N/A   Clear
4:15 AM 46.4 °F 41.5 °F 30.2 °F 53% 30.25 in 10.0 mi North 10.4 mph - N/A   Clear
4:35 AM 46.4 °F 41.9 °F 30.2 °F 53% 30.25 in 10.0 mi North 9.2 mph - N/A   Clear
4:55 AM 46.4 °F 40.7 °F 30.2 °F 53% 30.25 in 10.0 mi North 12.7 mph 16.1 mph N/A   Clear
5:15 AM 46.4 °F 42.4 °F 30.2 °F 53% 30.26 in 10.0 mi North 8.1 mph - N/A   Clear
5:35 AM 44.6 °F 41.4 °F 30.2 °F 57% 30.26 in 10.0 mi North 5.8 mph - N/A   Clear
5:55 AM 44.6 °F 40.2 °F 30.2 °F 57% 30.26 in 10.0 mi North 8.1 mph - N/A   Mostly Cloudy
6:15 AM 44.6 °F 38.4 °F 32.0 °F 61% 30.26 in 10.0 mi North 12.7 mph - N/A   Overcast
6:35 AM 42.8 °F 36.2 °F 33.8 °F 70% 30.27 in 10.0 mi North 12.7 mph 18.4 mph N/A   Overcast
6:55 AM 42.8 °F 38.6 °F 33.8 °F 70% 30.28 in 10.0 mi NW 6.9 mph - N/A   Overcast
7:15 AM 44.6 °F 40.2 °F 33.8 °F 66% 30.29 in 10.0 mi NNE 8.1 mph - N/A   Mostly Cloudy
7:35 AM 42.8 °F 40.1 °F 33.8 °F 70% 30.29 in 10.0 mi NNW 4.6 mph - N/A   Mostly Cloudy
7:55 AM 42.8 °F 37.5 °F 33.8 °F 70% 30.29 in 10.0 mi NNE 9.2 mph - N/A   Overcast
8:15 AM 42.8 °F 38.0 °F 33.8 °F 70% 30.30 in 8.0 mi North 8.1 mph - 0.04 in   Overcast
8:35 AM 42.8 °F 38.0 °F 33.8 °F 70% 30.29 in 10.0 mi North 8.1 mph - 0.05 in   Overcast
8:55 AM 42.8 °F 38.0 °F 33.8 °F 70% 30.30 in 10.0 mi North 8.1 mph - 0.06 in   Overcast
9:15 AM 42.8 °F 38.6 °F 35.6 °F 76% 30.30 in 10.0 mi NNE 6.9 mph - N/A   Overcast
9:35 AM 42.8 °F 38.0 °F 35.6 °F 76% 30.30 in 10.0 mi NNE 8.1 mph - N/A   Overcast
9:55 AM 44.6 °F 40.7 °F 35.6 °F 71% 30.30 in 10.0 mi NNE 6.9 mph - N/A   Overcast
10:35 AM 42.8 °F 39.3 °F 35.6 °F 76% 30.30 in 9.0 mi North 5.8 mph - 0.01 in   Overcast
10:55 AM 42.8 °F 39.3 °F 35.6 °F 76% 30.30 in 7.0 mi NNE 5.8 mph - 0.03 in   Overcast
11:15 AM 42.8 °F 38.0 °F 35.6 °F 76% 30.30 in 8.0 mi NE 8.1 mph - 0.01 in   Overcast
11:35 AM 44.6 °F 41.4 °F 35.6 °F 71% 30.30 in 9.0 mi NNE 5.8 mph - 0.04 in   Overcast
11:55 AM 44.6 °F 41.4 °F 35.6 °F 71% 30.29 in 10.0 mi North 5.8 mph - 0.08 in   Overcast
12:15 PM 44.6 °F 42.2 °F 35.6 °F 71% 30.29 in 8.0 mi NNE 4.6 mph - 0.03 in   Overcast
12:35 PM 44.6 °F 43.1 °F 35.6 °F 71% 30.29 in 10.0 mi NNW 3.5 mph - 0.03 in   Overcast
12:55 PM 44.6 °F 40.7 °F 35.6 °F 71% 30.29 in 9.0 mi North 6.9 mph - 0.04 in   Overcast
1:15 PM 44.6 °F 39.7 °F 37.4 °F 76% 30.27 in 10.0 mi NE 9.2 mph - N/A   Overcast
1:35 PM 46.4 °F 42.4 °F 37.4 °F 71% 30.26 in 10.0 mi North 8.1 mph - N/A   Overcast
1:55 PM 46.4 °F 42.4 °F 37.4 °F 71% 30.25 in 10.0 mi North 8.1 mph - N/A   Overcast
2:15 PM 46.4 °F 42.9 °F 37.4 °F 71% 30.25 in 10.0 mi North 6.9 mph - N/A   Overcast
2:35 PM 46.4 °F 42.4 °F 37.4 °F 71% 30.25 in 10.0 mi NNW 8.1 mph - N/A   Overcast
3:15 PM 48.2 °F - 37.4 °F 66% 30.24 in 10.0 mi North 6.9 mph - N/A   Overcast
3:35 PM 46.4 °F 42.9 °F 37.4 °F 71% 30.23 in 10.0 mi North 6.9 mph - N/A   Overcast
3:55 PM 46.4 °F 43.5 °F 37.4 °F 71% 30.23 in 10.0 mi NNE 5.8 mph - N/A   Overcast
4:15 PM 48.2 °F - 37.4 °F 66% 30.22 in 10.0 mi North 6.9 mph - N/A   Overcast
4:35 PM 48.2 °F - 37.4 °F 66% 30.22 in 10.0 mi North 5.8 mph - N/A   Overcast
4:55 PM 48.2 °F - 37.4 °F 66% 30.21 in 10.0 mi NNW 4.6 mph - N/A   Overcast
5:15 PM 48.2 °F - 37.4 °F 66% 30.21 in 10.0 mi North 4.6 mph - N/A   Overcast
5:35 PM 48.2 °F - 37.4 °F 66% 30.20 in 10.0 mi NNW 4.6 mph - N/A   Overcast
5:55 PM 48.2 °F - 37.4 °F 66% 30.20 in 10.0 mi NNW 6.9 mph - N/A   Overcast
6:15 PM 48.2 °F - 37.4 °F 66% 30.19 in 10.0 mi NNW 4.6 mph - N/A   Overcast
6:35 PM 48.2 °F - 37.4 °F 66% 30.19 in 10.0 mi NW 3.5 mph - N/A   Overcast
6:55 PM 48.2 °F - 37.4 °F 66% 30.19 in 10.0 mi NW 4.6 mph - N/A   Overcast
7:15 PM 48.2 °F - 37.4 °F 66% 30.18 in 10.0 mi NNE 4.6 mph - N/A   Overcast
7:35 PM 48.2 °F - 39.2 °F 71% 30.18 in 10.0 mi North 5.8 mph - N/A   Overcast
7:55 PM 48.2 °F - 37.4 °F 66% 30.17 in 10.0 mi NNE 4.6 mph - N/A   Overcast
8:15 PM 48.2 °F - 37.4 °F 66% 30.18 in 10.0 mi North 4.6 mph - N/A   Overcast
8:35 PM 48.2 °F - 37.4 °F 66% 30.18 in 10.0 mi NNW 4.6 mph - N/A   Overcast
8:55 PM 48.2 °F - 37.4 °F 66% 30.18 in 10.0 mi Calm Calm - N/A   Overcast
9:15 PM 48.2 °F - 37.4 °F 66% 30.17 in 10.0 mi Calm Calm - N/A   Overcast
9:35 PM 48.2 °F - 37.4 °F 66% 30.17 in 10.0 mi Calm Calm - N/A   Overcast
9:55 PM 48.2 °F - 37.4 °F 66% 30.17 in 10.0 mi Calm Calm - N/A   Overcast
10:15 PM 48.2 °F - 37.4 °F 66% 30.16 in 10.0 mi Calm Calm - N/A   Overcast
10:35 PM 48.2 °F - 37.4 °F 66% 30.15 in 10.0 mi Calm Calm - N/A   Overcast
10:55 PM 48.2 °F - 39.2 °F 71% 30.15 in 10.0 mi East 3.5 mph - N/A   Overcast
11:15 PM 48.2 °F - 39.2 °F 71% 30.14 in 10.0 mi East 4.6 mph - N/A   Overcast
11:35 PM 48.2 °F - 39.2 °F 71% 30.14 in 10.0 mi ESE 4.6 mph - N/A   Overcast
11:55 PM 48.2 °F - 39.2 °F 71% 30.13 in 10.0 mi ESE 6.9 mph - N/A   Overcast